Regional Weather Roundup
Issued by NWS Newport/Morehead, NC

Current Version | Previous Version | Graphics & Text | Print | Product List | Glossary On
Versions: 1 2 3 4 5 6 7 8 9 10 11 12 13 14 15 16 17 18 19 20 21 22 23 24 25 26 27 28 29 30 31 32 33 34 35 36 37 38 39 40 41 42 43 44 45 46 47 48 49 50
000 ASUS42 KMHX 230713 RWRMHX WEATHER ROUNDUP FOR EASTERN NORTH CAROLINA NATIONAL WEATHER SERVICE NEWPORT/MOREHEAD CITY NC 300 AM EDT THU MAR 23 2017 NOTE: "FAIR" INDICATES FEW OR NO CLOUDS BELOW 12,000 FEET WITH NO SIGNIFICANT WEATHER AND/OR OBSTRUCTIONS TO VISIBILITY NCZ015>017-031-032-045>047-102-103-230800- NORTH COAST CITY SKY/WX TMP DP RH WIND PRES REMARKS EDENTON CLEAR 33 26 76 CALM 30.48S ELIZABETH CITY PTCLDY 38 24 57 NE9 30.48R KITTY HAWK NOT AVBL MANTEO CLEAR 39 24 54 NE8 30.47S $$ NCZ045>047-081-094-103-104-230800- CENTRAL COAST CITY SKY/WX TMP DP RH WIND PRES REMARKS FRISCO CLEAR 43 23 45 NE13G21 30.43F $$ NCZ095-097-098-100-101-230800- SOUTHERN COAST CITY SKY/WX TMP DP RH WIND PRES REMARKS BEAUFORT CLEAR 39 29 67 NE5 30.44S CEDAR ISLAND NOT AVBL JACKSONVILLE PTCLDY 40 30 67 NE8 30.43F PINEY ISLAND SUNNY N/A N/A N/A NE13G21 30.43F WILMINGTON PTCLDY 37 29 72 NE8 30.42S $$ NCZ011>013-027>030-043-044-078>080-089-090>093-098-230800- COASTAL PLAIN CITY SKY/WX TMP DP RH WIND PRES REMARKS AHOSKIE NOT AVBL CLINTON CLEAR 39 31 72 CALM 30.45S ELIZABETHTOWN CLEAR 41 29 64 CALM 30.43S GOLDSBORO CLEAR 37 28 72 CALM 30.44S GREENVILLE CLEAR 32 30 93 CALM 30.47S HAVELOCK CLEAR 42 27 55 NE8 30.44F KENANSVILLE PTCLDY 36 28 75 CALM 30.45S KINSTON PTCLDY 32 29 90 CALM 30.46F NEW BERN PTCLDY 38 28 67 E6 30.45F RICHLANDS PTCLDY 33 29 85 NE5 30.45S ROCKY MOUNT PTCLDY 32 26 78 CALM 30.48R WASHINGTON PTCLDY 35 26 68 CALM 30.47S WHITEVILLE CLEAR 43 29 59 NE9 30.41S $$ AMZ130-135-150-152-154-156-158-170-250-252-270-ANZ085-086-088-633-658-670-230800- MARINE OBSERVATIONS STATION/POSITION TIME TEMP WIND PRES WAVE SWELL AIR SEA DIR/SP/G HT/PER HT/PER (UTC) (F) (DEG/KT/KT) (MB) (FT/S) (FT/S) CHESAPEAKE LIGHT NOT AVBL 64 E VA BEACH 0650 41 49 20/ 19/ 23 1030.4 9/ 8 5/ 8 DUCK 0648 48 30/ 16/ 18 1031.0 2 E DUCK 0630 47 N/A 6/ 8 2/11 OREGON INLET 0642 51 20/ 12/ 14 1031.5 13E OREGON INLT NOT AVBL HATTERAS CG 0648 54 30/ 13/ 22 1030.1 DIAMOND BUOY 0650 46 75 20/ 23/ 27 1029.9 10/11 5/11 CAPE LOOKOUT 0700 45 40/ 17/ 20 1030.2 BEAUFORT LAB 0648 53 30/ 7/ 10 1029.6 30 SE NEW RVR IN 0608 50 50/ 19/ 27 1029.8 30 SE NEW RVR IN 0643 64 N/A 6/11 2/11 27 SE WRIGHTSVLE 0608 52 62 90/ 21/ 31 1028.5 5 SE WRIGHTSVLE 0608 50 57 70/ 17/ 33 1029.6 225 S CAPE HAT 0650 61 72 30/ 25/ 29 1024.3 9/10 7/10 41 SE CHARLESTON 0650 60 66 50/ 25/ 33 1025.6 8/ 7 2/11 $$

USA.gov is the U.S. government's official web portal to all federal, state and local government web resources and services.